Location: Newark
(45.5000°N, 11.4167°E)
Time: 04:27:32
(UTC+00:00)

Vanguard 2 Rocket - Visible Passes

Search period start: 22 August 2019 00:00
Search period end: 01 September 2019 00:00
Orbit: 553 x 3327 km, 32.9° (Epoch: 20 August)

Date Brightness Start Highest point End Pass type
(mag) Time Alt. Az. Time Alt. Az. Time Alt. Az.
22 Aug 9.4 01:53:36 25° SSW 02:00:16 38° SSE 02:16:33 10° E visible
23 Aug 9.4 00:57:17 27° SSE 01:00:08 29° SE 01:13:33 10° E visible
23 Aug 9.6 03:03:05 16° SW 03:14:21 50° SSE 03:32:53 10° E visible
24 Aug 9.8 00:00:58 20° SE 00:00:58 20° SE 00:09:55 10° E visible
24 Aug 9.2 02:06:46 27° SSW 02:13:32 44° SSE 02:30:27 10° E visible
25 Aug 9.1 01:10:28 33° S 01:13:14 35° SSE 01:27:44 10° E visible
25 Aug 9.5 03:16:16 14° WSW 03:27:53 52° S 03:46:31 10° ESE visible
26 Aug 9.5 00:14:11 26° SE 00:14:11 26° SE 00:24:42 10° E visible
26 Aug 9.1 02:19:58 27° SW 02:26:59 48° SSE 02:44:12 10° E visible
26 Aug 10.0 23:17:54 14° ESE 23:17:54 14° ESE 23:21:04 10° E visible
27 Aug 8.9 01:23:41 37° S 01:26:33 41° SSE 01:41:38 10° E visible
27 Aug 9.5 03:29:30 12° WSW 03:41:31 52° S 03:59:59 10° ESE visible
28 Aug 9.2 00:27:27 32° SE 00:27:27 32° SE 00:38:56 10° E visible
28 Aug 9.1 02:33:14 25° SW 02:40:35 49° S 02:57:48 10° ESE visible
28 Aug 9.7 23:31:13 19° ESE 23:31:13 19° ESE 23:36:03 10° E visible
29 Aug 8.7 01:37:01 39° SSW 01:40:05 45° SSE 01:55:22 10° ESE visible
29 Aug 9.5 03:42:59 10° WSW 03:55:11 48° S 04:13:12 10° ESE visible
30 Aug 8.9 00:40:49 37° SSE 00:40:49 37° SSE 00:52:52 10° E visible
30 Aug 9.1 02:46:38 23° WSW 02:54:16 48° S 03:11:12 10° ESE visible
30 Aug 9.5 23:44:40 22° ESE 23:44:40 22° ESE 23:50:23 10° E visible
31 Aug 8.6 01:50:28 38° SSW 01:53:45 46° S 02:08:57 10° ESE visible
31 Aug 9.6 03:57:08 10° W 04:08:52 43° SSW 04:26:05 10° SE visible
